EHI
0 0 0 0 0 0 0 0 0 0 0 0 0 0 0 0 0 0 0 0 0 0 0 0 0 0 0 0 0 0 0 0 0 0 0 0 0 0
0 0 0 0 0 0 0 0 0 0 0 0 0 0 0 0 0 0 0 0 0 0 0 0 0 0 0 0 0 0 0 0 0 0 0 0 0 0
0 0 0 0 0 0 0 0 0 0 0 0 0 0 0 0 0 0 0 0 0 0 0 0 0 0 0 0 0 0 0 0 0 0 0 0 0 0
0 0 0 0 0 0 0 0 0 0 0 0 0 0 0 0 0 0 0 0 0 0 0 0 0 0 0 0 0 0 0 0 0 0 0 0 0 0
0 0 0 0 0 0 0 0 0 0 0 0 0 0 0 0 0 0 0 0 0 0 0 0 0 0 0 0 0 0 0 0 0 0 0 0 0 0
0 0 0 0 0 0 0 0 0 0 0 0 0 0 0 0 0 0 0 0 0 0 0 0 0 0 0 0 0 0 0 0 0 0 0 0 0 0
0 0 0 0 0 0 0 0 0 0 0 0 0 0 0 0 0 0 0 0 0 0 0 0 0 0 0 0 0 0 0 0 0 0 0 0 0 0
0 0 0 0 0 0 0 0 0 0 0 0 0 0 0 0 0 0 0 0 0 0 0 0 0 0 0 0 0 0 0 0 0 0 0 0 0 0
0 0 0 0 0 0 0 0 0 0 0 0 0 0 0 0 0 0 0 0 0 0 0 0 0 0 0 0 0 0 0 0 0 0 0 0 0 0
0 0 0 0 0 0 0 0 0 0 0 0 0 0 0 0 0 0 0 0 0 0 0 0 0 0 0 0 0 0 0 0 0 0 0 0 0 0
0 0 0 0 0 0 0 0 0 0 0 0 0 0 0 0 0 0 0 0 0 0 0 0 0 0 0 0 0 0 0 0 0 0 0 0 0 0
0 0 0 0 0 0 0 0 0 0 0 0 0 0 0 0 0 0 0 0 0 0 0 0 0 0 0 0 0 0 0 0 0 0 0 0 0 0
0 0 0 0 0 0 0 0 0 0 0 0 0 0 0 0 0 0 0 0 0 0 0 0 0 0 0 0 0 0 0 0 0 0 0 0 0 0
0 0 0 0 0 0 0 0 0 0 0 0 0 0 0 0 0 0 0 0 0 0 0 0 0 0 0 0 0 0 0 0 0 0 0 0 0 0
0 0 0 0 0 0 0 0 0 0 0 0 0 0 0 0 0 0 0 0 0 0 0 0 0 0 0 0 0 0 0 0 0 0 0 0 0 0
0 0 0 0 0 0 0 0 0 0 0 0 0 0 0 0 0 0 0 0 0 0 0 0 0 0 0 0 0 0 0 0 0 0 0 0 0 0
0 0 0 0 0 0 0 0 0 0 0 0 0 0 0 0 0 0 0 0 0 0 0 0 0 0 0 0 0 0 0 0 0 0 0 0 0 0
0 0 0 0 0 0 0 0 0 0 0 0 0 0 0 0 0 0 0 0 0 0 0 0 0 0 0 0 0 0 0 0 0 0 0 0 0 0
0 0 0 0 0 0 0 0 0 0 0 0 0 0 0 0 0 0 0 0 0 0 0 0 0 0 0 0 0 0 0 0 0 0 0 0 0 0
0 0 0 0 0 0 0 0 0 0 0 0 0 0 0 0 0 0 0 0 0 0 0 0 0 0 0 0 0 0 0 0 0 0 0 0 0 0
0 0 0 0 0 0 0 0 0 0 0 0 0 0 0 0 0 0 0 0 0 0 0 0 0 0 0 0 0 0 0 0 0 0 0 0 0 0
0 0 0 0 0 0 0 0 0 0 0 0 0 0 0 0 0 0 0 0 0 0 0 0 0 0 0 0 0 0 0 0 0 0 0 0 0 0
0 0 0 0 0 0 0 0 0 0 0 0 0 0 0 0 0 0 0 0 0 0 0 0 0 0 0 0 0 0 0 0 0 0 0 0 0 0
Wind_Speed
1 1 1 2 3 3 4 6 7 6 4 3 2 2 4 4 5 4 5 9 10 9 8 7 7 6 6 6 6 6 5 4 4 3 2 2 2 3
1 1 1 1 2 3 3 3 4 6 5 3 3 4 5 5 6 4 5 8 7 7 6 5 5 5 5 5 5 5 4 3 2 1 0 1 2 3
3 3 3 3 3 3 4 4 4 5 8 5 4 5 4 5 4 3 3 2 2 5 5 5 4 4 4 4 4 4 3 3 3 2 2 3 4 4
4 4 4 4 5 4 4 6 5 5 9 10 5 4 4 4 4 4 3 3 2 3 4 5 4 4 4 4 5 4 4 4 4 4 5 5 6 6
5 5 5 6 6 5 6 7 6 7 7 9 6 3 3 3 4 3 2 1 2 3 5 6 6 6 6 6 6 6 6 6 6 6 6 7 7 7
6 6 6 6 7 7 7 8 8 9 8 8 7 4 3 3 3 3 1 0 1 2 3 3 5 7 7 8 8 8 8 8 8 8 8 8 8 7
8 7 7 9 8 7 7 7 8 7 7 7 6 4 3 3 2 2 2 0 1 1 1 2 2 2 4 7 9 10 10 10 10 9 9 9 9 9
8 8 9 10 11 12 11 10 9 9 7 6 5 5 4 3 2 2 2 2 1 1 1 2 1 2 3 4 7 10 10 10 10 10 10 10 9 9
8 7 7 9 10 10 12 13 10 10 9 7 7 5 4 4 4 3 2 2 2 2 2 1 1 2 3 4 8 10 11 11 11 11 11 10 10 10
8 8 8 7 8 9 10 10 9 7 7 6 6 5 4 4 4 4 3 2 1 1 2 1 2 2 3 3 6 8 10 10 10 11 11 11 11 10
8 8 8 8 11 12 11 10 9 6 8 9 7 6 6 5 5 4 3 3 2 2 1 1 1 2 3 3 4 6 8 9 10 11 12 12 11 9
7 7 10 10 11 11 9 9 8 4 4 5 5 5 4 4 4 4 4 3 2 1 2 1 0 1 3 3 3 3 3 6 9 11 12 13 11 5
5 5 5 11 12 12 9 6 5 4 4 4 4 3 3 3 2 1 2 4 3 2 3 2 1 0 1 3 4 3 2 3 3 5 9 11 11 7
4 3 4 9 10 9 7 7 8 6 4 4 3 2 2 2 1 1 0 1 3 4 3 3 2 2 1 2 4 4 3 3 3 3 4 6 8 10
3 4 6 8 7 6 7 8 6 4 4 3 2 1 1 1 1 2 3 2 2 3 3 3 4 3 3 3 3 3 3 4 3 3 3 4 4 3
3 4 6 7 6 5 5 4 3 3 3 2 1 1 1 2 2 1 1 2 3 4 4 2 3 4 3 3 3 4 3 4 4 3 3 4 4 4
2 3 4 4 4 3 3 3 2 2 2 1 1 1 2 2 2 1 1 1 1 2 4 4 2 2 5 4 3 4 4 4 4 3 2 3 5 5
4 3 2 1 1 1 1 1 1 1 1 1 1 1 1 1 1 2 1 1 1 2 3 3 3 4 4 3 5 4 3 4 4 3 3 3 5 6
3 1 1 0 0 1 1 1 0 0 0 1 1 1 1 1 1 2 2 1 2 2 3 2 1 0 1 4 7 4 4 4 3 4 4 4 5 7
1 0 1 1 1 1 1 1 1 0 0 0 0 0 0 1 1 1 2 2 2 3 3 3 2 2 4 4 4 6 6 5 4 4 5 4 5 8
1 1 1 2 2 2 2 2 2 1 1 1 0 1 1 1 1 2 2 4 3 2 3 5 5 6 3 1 3 5 6 7 7 6 4 4 4 4
1 1 1 2 2 2 2 2 1 1 1 1 1 1 1 1 2 3 3 3 3 3 4 5 5 3 1 2 4 5 6 7 8 9 11 10 5 5
2 2 1 2 2 2 2 2 2 2 2 2 2 2 2 1 2 2 3 3 3 4 4 4 4 3 3 3 4 5 7 7 5 5 7 10 14 17
Wind_Direction
258 220 209 187 169 162 156 155 149 151 150 139 115 104 105 101 115 110 113 122 124 122 119 118 116 116 120 124 127 122 120 120 118 109 89 60 35 17
60 73 80 98 115 129 138 127 127 135 136 132 123 129 128 132 131 122 125 134 137 135 134 136 133 134 139 149 150 148 149 150 155 165 214 345 340 335
62 74 75 84 107 114 121 120 117 117 122 113 102 120 123 131 129 119 122 132 143 161 168 171 168 167 172 174 175 179 183 191 210 236 266 286 295 302
72 76 77 86 92 101 109 112 115 115 128 129 124 124 129 140 132 131 144 165 170 196 204 205 204 201 202 205 210 214 220 227 240 254 265 274 282 288
74 79 83 91 89 92 99 104 106 109 112 124 125 118 114 127 118 121 132 130 192 206 220 227 229 228 225 225 229 233 238 242 248 256 264 272 280 287
66 72 76 88 97 101 102 106 110 111 113 119 120 115 108 106 110 117 116 168 224 220 224 223 231 237 237 236 238 240 243 246 250 255 261 268 274 281
62 64 73 85 92 102 112 116 118 116 115 115 116 110 109 117 132 144 138 143 289 249 227 252 231 241 245 242 242 241 244 247 249 254 259 264 271 277
67 65 73 78 85 91 102 108 118 123 122 117 119 124 129 134 130 134 128 112 281 263 167 267 200 246 252 239 242 242 244 248 251 254 257 262 267 273
60 64 74 76 79 87 87 85 86 100 114 123 126 135 142 157 140 127 142 162 215 240 130 279 280 263 263 256 248 245 245 247 250 253 258 261 263 268
57 65 74 70 80 90 88 80 75 77 95 104 123 135 144 152 152 157 168 147 5 351 122 179 288 271 278 274 268 255 252 252 254 258 262 263 263 266
51 56 69 75 82 91 91 87 78 64 74 93 106 111 118 128 136 106 88 84 46 324 351 130 293 309 308 296 289 279 266 261 260 259 261 264 263 263
48 46 59 74 78 84 90 95 90 79 83 77 69 61 65 73 93 118 134 120 116 307 293 113 330 17 333 302 295 299 289 273 267 264 262 263 262 250
62 47 51 72 77 80 83 89 102 103 85 80 68 51 41 39 41 82 142 144 148 225 241 152 164 128 207 297 306 290 268 268 277 269 266 266 260 228
74 56 62 73 76 77 77 87 88 83 76 69 60 43 33 12 348 346 242 194 195 212 225 168 180 189 189 281 291 299 296 271 254 264 271 277 268 244
68 74 73 69 64 59 63 75 78 80 78 76 71 360 290 291 338 351 350 348 321 278 241 198 190 191 179 210 255 276 298 296 273 264 272 263 257 251
42 40 50 54 53 47 43 48 59 89 107 113 132 311 335 0 5 6 0 359 358 327 318 276 210 188 209 230 227 262 262 272 289 281 271 273 264 243
52 43 37 31 28 23 24 29 40 57 67 64 66 32 15 10 348 349 12 23 11 317 316 323 321 233 221 217 248 261 266 271 265 270 275 284 278 263
71 51 33 27 26 22 35 24 26 43 55 76 68 48 23 11 349 351 15 18 319 298 294 301 332 350 348 302 224 239 267 263 270 269 240 255 280 278
73 49 14 263 201 194 167 156 203 265 105 88 83 53 37 17 10 350 348 346 321 301 290 287 295 254 315 298 295 239 217 262 278 283 262 236 253 269
61 209 228 208 187 183 178 173 185 175 105 100 96 359 4 1 346 330 323 304 299 301 306 306 284 237 219 239 263 282 254 229 249 266 273 272 264 272
318 275 217 193 183 180 181 181 180 185 193 180 246 268 283 295 295 289 296 305 304 295 295 288 278 278 243 251 295 290 285 265 234 233 253 274 289 298
254 238 221 201 187 185 188 184 187 203 213 218 240 259 264 252 266 282 288 291 287 279 278 281 295 315 297 269 276 279 286 297 295 276 244 220 216 240
221 216 210 203 195 184 179 179 179 201 211 211 223 240 247 261 273 276 282 281 282 289 294 300 309 312 288 268 272 279 284 289 294 304 295 274 251 247